Regional Weather Roundup
Issued by NWS Sterling, VA

Home | Current Version | Previous Version | Graphics & Text | Print | Product List | Glossary On
Versions: 1 2 3 4 5 6 7 8 9 10 11 12 13 14 15 16 17 18 19 20 21 22 23 24 25 26 27 28 29 30 31 32 33 34 35 36 37 38 39 40 41 42 43 44 45 46 47 48 49 50
000
ASUS41 KLWX 220211
RWRLWX

REGIONAL WEATHER ROUNDUP
NATIONAL WEATHER SERVICE BALTIMORE MD/WASHINGTON DC
1000 PM EDT SAT OCT 21 2017

Note: "FAIR" indicates few or no clouds below 12,000 feet
with no significant weather and/or obstructions to visibility.
 TC=TEMPERATURE CELSIUS

 * =Non NWS site. Station does not report precipitation (e.g. rain,
    snow, etc.), thunder, or fog.

DCZ001-MDZ009-015-VAZ040>042-051-053>054-220300-
WASHINGTON METRO

CITY           SKY/WX    TMP DP  RH WIND       PRES   REMARKS
WASHINGTON NAT CLOUDY    65  52  62 CALM      30.36S
DULLES         PTCLDY    53  47  79 CALM      30.36R
ANDREWS AFB    PTCLDY    55  48  79 CALM      30.35S
FT BELVOIR     CLOUDY    54  51  92 CALM      30.36R
QUANTICO       CLOUDY    58  55  90 NW6       30.37R
COLLEGE PARK*  PTCLDY    53  49  84 CALM      30.36R
LEESBURG*      CLOUDY    55  52  88 CALM      30.37S
MANASSAS*      CLEAR     51  47  86 CALM      30.36S
GAITHERSBURG*  CLEAR     54  47  77 CALM      30.37S

$$

MDZ006>007-011-014-220300-
BALTIMORE METRO

CITY           SKY/WX    TMP DP  RH WIND       PRES   REMARKS
BWI AIRPORT    PTCLDY    54  50  86 CALM      30.36R
MD SCIENCE CTR   N/A     65  49  56 MISG      30.36S
MARTIN STATE   PTCLDY    55  55 100 CALM      30.38R
ANNAPOLIS      CLOUDY    59  56  89 CALM      30.36S
FORT MEADE*    PTCLDY    50  48  93 CALM      30.38S

$$

MDZ012-015-019>023-220300-
MARYLAND EASTERN SHORE

CITY           SKY/WX    TMP DP  RH WIND       PRES   REMARKS
OCEAN CITY     CLOUDY    56  55  97 CALM      30.38S
SALISBURY      PTCLDY    55  54  96 CALM      30.37S
CAMBRIDGE*     CLEAR     55  50  82 CALM      30.37S
EASTON*        MOCLDY    55  50  82 CALM      30.41R

$$

MDZ017>025-220300-
SOUTHERN MARYLAND

CITY           SKY/WX    TMP DP  RH WIND       PRES   REMARKS
PATUXENT RIVER PTCLDY    53  49  86 CALM      30.36S
ST INIGOES     CLOUDY    53  50  89 E3        30.35S
LEONARDTOWN*   NOT AVBL

$$

MDZ003>005-220300-
NORTH CENTRAL MARYLAND

CITY           SKY/WX    TMP DP  RH WIND       PRES   REMARKS
FREDERICK*     CLEAR     54  54 100 CALM      30.38S
HAGERSTOWN APT CLEAR     63  45  51 SE7       30.35R
WESTMINSTER*   CLEAR     59  46  63 CALM      30.37R

$$

MDZ501>502-220300-
WESTERN MARYLAND

CITY           SKY/WX    TMP DP  RH WIND       PRES   REMARKS
OAKLAND*       PTCLDY    54  45  71 SE7       30.34S
CUMBERLAND*    MOCLDY    61  52  72 NW5       30.37S

$$

VAZ025>031-220300-
SHENANDOAH VALLEY

CITY           SKY/WX    TMP DP  RH WIND       PRES   REMARKS
WINCHESTER*    PTCLDY    52  45  76 CALM      30.35S
FRONT ROYAL*   PTCLDY    63  46  55 CALM      30.34S
LURAY*         PTCLDY    55  52  88 CALM      30.35S
NEW MARKET*    CLOUDY    54  49  83 CALM      30.35S
STAUNTON*      PTCLDY    54  49  83 CALM      30.37S
WAYNESBORO*    CLEAR     56  52  85 SW9       30.37S

$$

WVZ021-048>050-054>055-220300-
EASTERN WEST VIRGINIA PANHANDLE

CITY           SKY/WX    TMP DP  RH WIND       PRES   REMARKS
MARTINSBURG    PTCLDY    54  48  80 CALM      30.34S
PETERSBURG*    PTCLDY    54  51  89 CALM      30.34R

$$

VAZ036>039-050-220300-
CENTRAL FOOTHILLS

CITY           SKY/WX    TMP DP  RH WIND       PRES   REMARKS
CHARLOTTESVILL CLEAR     59  55  87 CALM      30.35R
CULPEPER*      CLOUDY    54  47  76 CALM      30.37S
ORANGE*        CLOUDY    54  50  87 CALM      30.35S
GORDONSVILLE*  CLOUDY    55  54  95 CALM      30.35S
WARRENTON*     PTCLDY    48  43  80 CALM      30.36R

$$

VAZ055>057-220300-
NORTH AND CENTRAL PIEDMONT

CITY           SKY/WX    TMP DP  RH WIND       PRES   REMARKS
FREDERICKSBRG* CLOUDY    56  52  85 CALM      30.35S
STAFFORD*      PTCLDY    51  51 100 CALM      30.40S

$$

NCZ024-NYZ072-PAZ021-071-VAZ022-071-220300-
OTHER REGIONAL OBSERVATIONS

CITY           SKY/WX    TMP DP  RH WIND       PRES   REMARKS
NEW YORK CITY  PTCLDY    67  44  43 VRB5      30.38R
PHILADELPHIA   MOCLDY    63  44  50 SW3       30.37S
PITTSBURGH     CLOUDY    61  55  81 CALM      30.28S
ROANOKE        MOCLDY    63  54  72 CALM      30.37S
RICHMOND       MOCLDY    60  51  72 SE6       30.36R
RALEIGH        CLOUDY    60  55  83 CALM      30.35R

$$

ANZ530>537-220300-
MARINE OBSERVATIONS

STATION/POSITION TIME  TEMP    WIND        PRES
                       AIR SEA DIR/SP/G
                 (UTC) (F)     (DEG/KT/KT) (MB)
THOMAS PT LIGHT  0200   67 68  140/  5/  6   N/A
BALT KEY BRIDGE  0148   64     210/  1/  2 1027.9R
COVE POINT       0148   68     180/  5/  6 1028.7R
LEWISETTA        0148   63 66  190/  3/  3 1027.9F
SOLOMONS ISLAND  0148          360/  1/  2 1027.7S
PINEY POINT      0118          120/  4/  5   N/A

$$




USA.gov is the U.S. government's official web portal to all federal, state and local government web resources and services.